Location: Fours
(44.3167°N, 6.7000°E)
Time: 23:01:04
(UTC+00:00)

Cosmos 2218 Rocket - Pass Details

Date: 02 June 2022
Orbit: 956 x 1005 km, 82.9° (Epoch: 01 July)

Event Time Altitude Azimuth Distance (km) Brightness Sun altitude
Rises 03:05:41 0° 342° (NNW) 3,686 7.4 -7.4°
Reaches altitude 10° 03:08:30 10° 332° (NNW) 2,742 6.5 -7.0°
Maximum altitude 03:13:47 30° 274° (W) 1,710 4.9 -6.3°
Drops below altitude 10° 03:19:06 10° 217° (SW) 2,754 5.7 -5.6°
Enters shadow 03:20:54 - 210° (SSW) 3,344 6.2 -5.3°
